GW6339 Weather Reports


time (UTC)temp
F
wind
direction
speed
knots
gust
knots
rain 1hr
in
rain 24hr
in
rain mn
in
humidity
%
barometer
mb
20260510152521 77 297 0.0 2.6 0.00 0.14 0.15 60 1012.9
20260510152420 77 251 1.7 2.6 0.00 0.14 0.15 60 1013.0
20260510152020 77 0 1.7 2.6 0.00 0.14 0.15 59 1013.0
20260510151920 77 53 1.7 3.5 0.00 0.14 0.15 59 1013.2
20260510151820 77 141 1.7 2.6 0.00 0.14 0.15 59 1013.2
20260510151720 77 201 1.7 4.3 0.00 0.14 0.15 59 1013.3
20260510151620 77 120 3.5 3.5 0.00 0.14 0.15 59 1013.4
20260510151520 77 240 0.0 2.6 0.00 0.14 0.15 59 1013.1
20260510151420 77 55 1.7 2.6 0.00 0.14 0.15 59 1013.2
20260510151320 77 308 0.9 3.5 0.00 0.14 0.15 60 1013.4
20260510151121 77 123 0.0 1.7 0.00 0.14 0.15 62 1013.1
20260510151021 77 205 0.9 1.7 0.00 0.14 0.15 61 1013.3
20260510150920 76 25 1.7 2.6 0.00 0.14 0.15 61 1013.3
20260510150820 76 20 0.9 2.6 0.00 0.14 0.15 61 1013.2
20260510150219 76 87 0.9 3.5 0.00 0.14 0.15 62 1013.2
20260510150020 76 230 1.7 1.7 0.00 0.14 0.15 62 1013.3
20260510145920 76 184 0.9 3.5 0.00 0.14 0.15 63 1013.3
20260510145619 75 128 1.7 2.6 0.00 0.14 0.15 65 1013.2
20260510145519 75 211 1.7 2.6 0.00 0.14 0.15 66 1013.5
20260510145320 75 331 0.9 3.5 0.00 0.14 0.15 66 1013.3
20260510145220 75 245 1.7 2.6 0.00 0.14 0.15 66 1013.4
20260510145121 74 257 0.9 2.6 0.00 0.14 0.15 66 1013.3
20260510145020 74 64 1.7 1.7 0.00 0.14 0.15 66 1013.4
20260510144720 74 73 3.5 3.5 0.00 0.14 0.15 67 1013.5
20260510144619 74 197 0.0 2.6 0.00 0.14 0.15 68 1013.3
20260510144520 74 85 0.9 4.3 0.00 0.14 0.15 68 1013.4
20260510144320 73 12 1.7 4.3 0.00 0.14 0.15 68 1013.2
20260510144219 73 92 1.7 4.3 0.00 0.14 0.15 68 1013.5
20260510144119 73 172 0.0 3.5 0.00 0.14 0.15 68 1013.6
20260510143919 73 79 0.9 5.2 0.00 0.14 0.15 69 1013.5
20260510143419 72 168 2.6 3.5 0.00 0.14 0.15 71 1013.6
20260510143319 72 38 1.7 4.3 0.00 0.14 0.15 72 1013.3
20260510143219 72 181 0.9 5.2 0.00 0.14 0.15 72 1013.1
20260510142719 72 269 0.9 3.5 0.00 0.14 0.15 72 1013.3
20260510142619 72 40 1.7 5.2 0.00 0.14 0.15 71 1013.6
20260510142419 72 88 2.6 3.5 0.00 0.14 0.15 73 1013.8
20260510142319 72 197 1.7 3.5 0.00 0.14 0.15 73 1013.8
20260510142219 72 88 1.7 3.5 0.00 0.14 0.15 74 1014.0
20260510142119 72 143 0.9 2.6 0.00 0.14 0.15 75 1013.8
20260510141819 71 33 0.0 3.5 0.00 0.14 0.15 75 1014.0
20260510141719 71 195 0.9 4.3 0.00 0.14 0.15 75 1013.9
20260510141419 71 254 1.7 3.5 0.00 0.14 0.15 77 1014.0
20260510141320 71 231 0.0 2.6 0.00 0.14 0.15 77 1014.0
20260510141220 71 31 1.7 2.6 0.00 0.14 0.15 78 1013.9
20260510141120 71 8 0.0 1.7 0.00 0.14 0.15 77 1014.0
20260510141019 71 121 0.9 3.5 0.00 0.14 0.15 77 1014.0
20260510140919 70 109 2.6 3.5 0.00 0.14 0.15 78 1014.2
20260510140819 70 4 0.9 2.6 0.00 0.14 0.15 78 1014.1
20260510140719 70 73 0.0 3.5 0.00 0.14 0.15 78 1013.9
20260510140619 70 99 2.6 3.5 0.00 0.14 0.15 78 1013.9
20260510140319 70 55 1.7 3.5 0.00 0.14 0.15 79 1014.2
20260510140219 70 126 0.9 6.1 0.00 0.14 0.15 79 1014.2
20260510135919 69 93 1.7 5.2 0.00 0.14 0.15 82 1014.3
20260510135620 69 32 1.7 1.7 0.00 0.14 0.15 83 1014.6
20260510135319 68 88 0.9 3.5 0.00 0.14 0.15 83 1014.5
20260510135220 68 132 3.5 3.5 0.00 0.14 0.15 83 1014.6
20260510135020 68 185 1.7 2.6 0.00 0.14 0.15 84 1014.7
20260510134919 68 74 0.9 2.6 0.00 0.14 0.15 85 1014.8
20260510134720 68 347 0.0 3.5 0.00 0.14 0.15 85 1014.8
20260510134619 68 135 0.9 3.5 0.00 0.14 0.15 86 1014.9
20260510134419 67 71 0.0 2.6 0.00 0.14 0.15 86 1014.8
20260510134319 67 23 0.9 3.5 0.00 0.14 0.15 86 1015.0
20260510134219 67 83 1.7 3.5 0.00 0.14 0.15 87 1015.1
20260510134121 67 63 1.7 3.5 0.00 0.14 0.15 87 1015.1
20260510133920 67 32 1.7 2.6 0.00 0.14 0.15 88 1015.2
20260510133820 67 64 1.7 2.6 0.00 0.14 0.15 89 1015.2
20260510133520 66 190 0.9 1.7 0.00 0.14 0.15 89 1015.3
20260510133419 66 54 0.0 2.6 0.00 0.14 0.15 89 1015.2
20260510133119 66 83 0.0 3.5 0.00 0.14 0.15 88 1015.3
20260510132620 66 145 1.7 1.7 0.00 0.14 0.15 89 1015.2
20260510132319 66 152 1.7 2.6 0.00 0.14 0.15 89 1015.1
20260510132220 66 135 0.0 3.5 0.00 0.14 0.15 89 1015.3
20260510132120 66 87 2.6 3.5 0.00 0.14 0.15 89 1015.2
20260510132020 66 85 1.7 3.5 0.00 0.14 0.15 89 1015.1
20260510131920 66 166 0.0 3.5 0.00 0.14 0.15 89 1014.9
20260510131620 66 186 0.0 3.5 0.00 0.14 0.15 90 1015.0
20260510131219 66 143 0.0 3.5 0.00 0.14 0.15 90 1014.9
20260510131120 66 98 0.9 4.3 0.00 0.14 0.15 90 1014.9
20260510131020 66 109 1.7 4.3 0.00 0.14 0.15 90 1014.7
20260510130719 66 117 1.7 5.2 0.00 0.14 0.15 90 1015.0
20260510130619 66 70 2.6 3.5 0.00 0.14 0.15 90 1014.8
20260510130519 66 121 1.7 2.6 0.00 0.14 0.15 90 1014.6
20260510130221 66 94 1.7 4.3 0.00 0.14 0.15 90 1015.0
20260510125921 66 136 1.7 3.5 0.00 0.14 0.15 90 1014.8
20260510125820 66 67 0.0 3.5 0.00 0.14 0.15 90 1014.9
20260510125620 66 278 0.9 2.6 0.00 0.14 0.15 90 1014.9
20260510125521 66 308 1.7 3.5 0.00 0.14 0.15 90 1014.9
20260510125421 66 87 1.7 3.5 0.00 0.14 0.15 90 1014.8
20260510124820 66 100 1.7 3.5 0.00 0.14 0.15 91 1014.6
20260510124720 66 84 3.5 5.2 0.00 0.14 0.15 91 1014.7
20260510124620 66 150 1.7 5.2 0.00 0.14 0.15 91 1014.6
20260510124520 66 28 1.7 4.3 0.00 0.14 0.15 91 1014.6
20260510124221 65 79 2.6 4.3 0.00 0.14 0.15 91 1014.6
20260510124120 65 104 3.5 4.3 0.00 0.14 0.15 91 1014.7
20260510123919 65 43 1.7 3.5 0.00 0.14 0.15 92 1014.7
20260510123819 65 71 1.7 3.5 0.00 0.14 0.15 92 1014.5
20260510123719 65 65 1.7 4.3 0.00 0.14 0.15 92 1014.7
20260510123419 65 114 3.5 3.5 0.00 0.14 0.15 92 1014.9
20260510123320 65 89 2.6 4.3 0.00 0.14 0.15 92 1014.6
20260510123220 65 124 1.7 4.3 0.00 0.14 0.15 92 1014.7
20260510123120 65 146 2.6 4.3 0.00 0.14 0.15 92 1014.7
20260510123019 65 136 1.7 4.3 0.00 0.14 0.15 93 1014.8
20260510122919 65 148 0.9 5.2 0.00 0.14 0.15 93 1014.7
20260510122820 65 128 2.6 5.2 0.00 0.14 0.15 93 1014.9
20260510122719 64 101 0.9 4.3 0.00 0.14 0.15 93 1014.7
20260510122619 64 132 3.5 5.2 0.00 0.14 0.15 93 1014.6
20260510122519 64 117 1.7 5.2 0.00 0.14 0.15 93 1014.5
20260510122219 64 151 3.5 4.3 0.00 0.14 0.15 93 1014.8
20260510122120 64 135 2.6 4.3 0.00 0.14 0.15 93 1014.6
20260510122019 64 119 1.7 4.3 0.00 0.14 0.15 93 1014.5
20260510121919 64 140 4.3 4.3 0.00 0.14 0.15 93 1014.6
20260510121819 64 122 0.9 4.3 0.00 0.14 0.15 93 1014.4
20260510121720 64 150 3.5 7.0 0.00 0.14 0.15 93 1014.7
20260510121419 64 146 3.5 5.2 0.00 0.14 0.15 93 1014.5
20260510121319 64 136 1.7 4.3 0.00 0.14 0.15 93 1014.5
20260510121220 64 146 4.3 5.2 0.00 0.14 0.15 93 1014.4
20260510121019 64 130 3.5 3.5 0.00 0.14 0.15 93 1014.2
20260510120919 64 121 1.7 5.2 0.00 0.14 0.15 93 1014.4
20260510120819 64 115 3.5 5.2 0.00 0.14 0.15 93 1014.4
20260510120719 64 156 2.6 4.3 0.00 0.14 0.15 93 1014.5
20260510120620 64 134 3.5 4.3 0.00 0.14 0.15 93 1014.3
20260510120519 64 149 2.6 3.5 0.00 0.14 0.15 93 1014.3
20260510120419 64 95 1.7 3.5 0.00 0.14 0.15 93 1014.2
20260510120320 64 143 1.7 2.6 0.00 0.14 0.15 93 1014.2
20260510120120 64 151 1.7 3.5 0.00 0.14 0.15 93 1014.3
20260510120020 64 245 3.5 3.5 0.00 0.14 0.15 93 1014.2
20260510115920 64 61 1.7 3.5 0.00 0.14 0.15 93 1014.4
20260510115820 64 106 2.6 5.2 0.00 0.14 0.15 93 1014.3
20260510115721 64 123 2.6 5.2 0.00 0.14 0.15 93 1014.3
20260510115221 64 113 1.7 4.3 0.00 0.14 0.15 94 1014.4
20260510115120 64 141 0.9 5.2 0.00 0.14 0.15 94 1014.2
20260510114820 64 202 1.7 4.3 0.00 0.14 0.15 94 1014.2
20260510114720 64 92 2.6 4.3 0.00 0.14 0.15 94 1014.4
20260510114620 64 60 2.6 4.3 0.00 0.14 0.15 94 1014.4
20260510114520 64 101 4.3 4.3 0.00 0.14 0.15 94 1014.1
20260510114220 64 108 2.6 4.3 0.00 0.14 0.15 94 1014.3
20260510114021 64 114 1.7 2.6 0.00 0.14 0.15 94 1014.4
20260510113919 64 55 1.7 4.3 0.00 0.14 0.15 94 1014.4
20260510113819 64 96 3.5 4.3 0.00 0.14 0.15 94 1014.3
20260510113619 64 34 2.6 4.3 0.00 0.14 0.15 94 1014.3
20260510113519 64 342 1.7 4.3 0.00 0.14 0.15 94 1014.4
20260510113419 64 59 2.6 5.2 0.00 0.14 0.15 94 1014.1
20260510113319 64 78 0.9 5.2 0.00 0.14 0.15 94 1014.0
20260510113219 64 56 3.5 3.5 0.00 0.14 0.15 94 1013.9
20260510113119 64 27 1.7 3.5 0.00 0.14 0.15 94 1013.9
20260510112819 64 297 2.6 3.5 0.00 0.14 0.15 94 1014.2
20260510112719 64 14 0.0 4.3 0.00 0.14 0.15 94 1014.4
20260510112619 64 83 1.7 4.3 0.00 0.14 0.15 94 1014.2
20260510112519 64 131 1.7 4.3 0.00 0.14 0.15 94 1014.2
20260510112419 64 96 1.7 3.5 0.00 0.14 0.15 94 1014.1
20260510112319 64 49 0.9 4.3 0.00 0.14 0.15 94 1014.3
20260510112220 64 100 3.5 4.3 0.00 0.14 0.15 94 1014.4
20260510112119 64 57 0.0 3.5 0.00 0.14 0.15 94 1014.2
20260510111820 64 83 4.3 4.3 0.00 0.14 0.15 94 1014.1
20260510111720 64 101 1.7 2.6 0.00 0.14 0.15 94 1014.1
20260510111619 64 79 0.9 3.5 0.00 0.14 0.15 94 1014.0
20260510111519 64 87 0.9 3.5 0.00 0.14 0.15 94 1014.1
20260510111319 64 77 1.7 4.3 0.00 0.14 0.15 94 1014.3
20260510111219 64 77 2.6 3.5 0.00 0.14 0.15 94 1014.3
20260510111120 64 85 0.9 3.5 0.00 0.14 0.15 94 1014.0
20260510111020 64 87 0.9 3.5 0.00 0.14 0.15 94 1014.0
20260510110719 64 82 0.9 2.6 0.00 0.14 0.15 94 1014.1
20260510110619 64 95 1.7 2.6 0.00 0.14 0.15 94 1014.1
20260510110519 64 68 0.9 2.6 0.00 0.14 0.15 94 1014.2
20260510110419 64 130 0.0 2.6 0.00 0.14 0.15 94 1014.1
20260510110320 64 130 0.9 1.7 0.00 0.14 0.15 94 1013.9
20260510110120 64 139 0.9 3.5 0.00 0.14 0.15 93 1014.1
20260510110020 64 114 1.7 3.5 0.00 0.14 0.15 93 1014.0
20260510105920 64 159 1.7 4.3 0.00 0.14 0.15 93 1014.1
20260510105820 64 95 3.5 3.5 0.00 0.14 0.15 93 1014.1
20260510105720 64 127 0.0 3.5 0.00 0.14 0.15 93 1013.9
20260510105620 64 115 0.9 3.5 0.00 0.14 0.15 93 1013.8
20260510105221 64 93 0.9 5.2 0.00 0.14 0.15 93 1014.0
20260510105120 64 91 3.5 5.2 0.00 0.14 0.15 93 1013.9
20260510105020 64 77 1.7 2.6 0.00 0.14 0.15 93 1013.9
20260510104920 64 80 2.6 3.5 0.00 0.14 0.15 93 1014.0
20260510104820 64 106 2.6 2.6 0.00 0.14 0.15 93 1013.8
20260510104720 64 116 0.9 4.3 0.00 0.14 0.15 93 1013.8
20260510104620 64 95 0.9 5.2 0.00 0.14 0.15 93 1014.0
20260510104520 64 91 4.3 5.2 0.00 0.14 0.15 93 1014.1
20260510104420 64 110 0.9 2.6 0.00 0.14 0.15 93 1013.9
20260510104320 64 92 1.7 2.6 0.00 0.14 0.15 93 1014.1
20260510104220 64 109 0.9 3.5 0.00 0.14 0.15 93 1013.6
20260510104120 64 116 1.7 5.2 0.00 0.14 0.15 93 1014.0
20260510104021 64 93 1.7 5.2 0.00 0.14 0.15 93 1013.8
20260510103920 64 53 0.0 3.5 0.00 0.14 0.15 93 1013.7
20260510103820 64 96 1.7 3.5 0.00 0.14 0.15 93 1013.8
20260510103520 64 81 2.6 5.2 0.00 0.14 0.15 93 1013.7
20260510103420 64 158 1.7 3.5 0.03 0.14 0.15 93 1013.7
20260510103321 64 109 0.9 5.2 0.03 0.14 0.15 93 1013.7
20260510103221 64 74 1.7 5.2 0.03 0.14 0.15 93 1013.5
20260510103120 64 94 2.6 6.1 0.03 0.14 0.15 93 1013.5
20260510103020 64 81 3.5 5.2 0.03 0.14 0.15 93 1013.8
20260510102920 64 89 1.7 3.5 0.04 0.14 0.15 93 1013.6
20260510102821 64 115 1.7 4.3 0.04 0.14 0.15 93 1013.9
20260510102720 64 71 3.5 4.3 0.04 0.14 0.15 93 1013.6
20260510102621 64 92 2.6 3.5 0.04 0.14 0.15 93 1013.7
20260510102520 64 98 0.9 3.5 0.04 0.14 0.15 93 1013.7
20260510102220 64 136 1.7 5.2 0.06 0.14 0.15 93 1013.8
20260510102120 64 89 1.7 5.2 0.06 0.14 0.15 93 1013.5
20260510102021 64 99 1.7 2.6 0.06 0.14 0.15 93 1013.8
20260510101920 64 48 1.7 4.3 0.08 0.14 0.15 93 1013.8
20260510101820 64 118 1.7 4.3 0.08 0.14 0.15 93 1013.6
20260510101720 64 98 1.7 3.5 0.08 0.14 0.15 93 1013.7
20260510101620 64 69 1.7 3.5 0.08 0.14 0.15 93 1013.5
20260510101220 64 123 1.7 5.2 0.13 0.14 0.15 92 1013.7
20260510101120 64 105 2.6 5.2 0.13 0.14 0.15 92 1013.9
20260510101020 64 110 1.7 5.2 0.13 0.14 0.15 92 1013.8
20260510100720 64 76 2.6 6.1 0.15 0.14 0.15 92 1013.8
20260510100620 64 82 5.2 7.0 0.15 0.14 0.15 92 1014.1
20260510100520 64 131 3.5 7.0 0.15 0.14 0.15 92 1013.9
20260510100420 64 121 2.6 5.2 0.15 0.14 0.15 92 1013.9
20260510100220 64 79 3.5 6.1 0.15 0.14 0.15 92 1013.9
20260510100120 64 26 1.7 5.2 0.15 0.14 0.15 93 1013.9
20260510100020 64 84 3.5 3.5 0.15 0.14 0.15 93 1014.1
20260510095920 64 24 0.9 3.5 0.15 0.14 0.15 92 1014.0
20260510095820 64 15 0.9 5.2 0.15 0.14 0.15 92 1014.2
20260510095720 64 79 3.5 5.2 0.15 0.14 0.15 92 1014.1
20260510095620 64 121 0.9 4.3 0.15 0.14 0.15 92 1014.1
20260510095520 64 93 1.7 7.0 0.15 0.14 0.15 92 1013.9
20260510095420 64 351 0.9 7.0 0.15 0.14 0.15 92 1013.8
20260510095320 64 72 3.5 6.1 0.15 0.14 0.15 92 1014.1
20260510095020 64 88 4.3 6.1 0.15 0.14 0.15 92 1014.1
20260510094920 64 22 3.5 5.2 0.15 0.14 0.15 92 1014.0
20260510094820 64 51 2.6 7.8 0.15 0.14 0.15 92 1013.7
20260510094720 64 124 5.2 7.8 0.15 0.14 0.15 92 1013.7
20260510094420 64 55 3.5 7.0 0.15 0.14 0.15 91 1013.8
20260510094321 64 65 3.5 6.1 0.15 0.14 0.15 91 1013.7
20260510094220 65 47 1.7 9.6 0.15 0.14 0.15 91 1013.8
20260510094120 65 22 6.1 9.6 0.15 0.14 0.15 91 1013.8
20260510094020 65 99 0.0 5.2 0.15 0.14 0.15 90 1013.7
20260510093920 65 81 2.6 8.7 0.15 0.14 0.15 90 1013.8
20260510093821 65 31 0.9 9.6 0.15 0.13 0.15 89 1013.7
20260510093720 65 75 5.2 13.9 0.14 0.13 0.14 89 1013.6
20260510093620 65 76 3.5 13.9 0.13 0.12 0.13 89 1013.3
20260510093520 65 124 1.7 10.4 0.13 0.12 0.13 89 1013.0
20260510093420 65 120 3.5 9.6 0.12 0.11 0.12 89 1012.8
20260510093320 65 128 4.3 9.6 0.12 0.11 0.12 89 1012.9
20260510093220 65 79 3.5 7.0 0.12 0.11 0.12 89 1013.2
20260510093120 65 65 1.7 3.5 0.11 0.10 0.11 89 1013.2
20260510093020 65 125 1.7 7.8 0.11 0.10 0.11 89 1013.4
20260510092721 66 123 2.6 7.8 0.09 0.08 0.09 89 1013.6
20260510092620 66 89 3.5 7.8 0.09 0.08 0.09 88 1013.7
20260510092321 66 55 2.6 5.2 0.08 0.06 0.08 86 1013.7
20260510092221 66 125 3.5 7.0 0.07 0.06 0.07 86 1013.7
20260510091920 67 37 3.5 6.1 0.06 0.05 0.06 84 1014.3
20260510091820 67 82 1.7 6.1 0.06 0.04 0.06 83 1014.3
20260510091720 68 168 0.9 5.2 0.05 0.03 0.05 82 1013.8
20260510091620 69 231 1.7 5.2 0.04 0.01 0.04 80 1014.2
20260510091420 69 58 2.6 8.7 0.01 0.00 0.01 77 1014.1
20260510091220 70 147 3.5 7.8 0.00 0.00 0.00 74 1014.2
20260510091120 70 261 7.0 7.8 0.00 0.00 0.00 74 1014.2
20260510091020 70 255 2.6 7.0 0.00 0.00 0.00 73 1014.2
20260510090921 70 227 4.3 9.6 0.00 0.00 0.00 73 1014.1
20260510090821 70 51 5.2 9.6 0.00 0.00 0.00 73 1014.1
20260510090720 71 190 1.7 5.2 0.00 0.00 0.00 73 1014.0
20260510090520 71 45 2.6 7.8 0.00 0.00 0.00 72 1013.7
20260510090320 71 46 1.7 6.1 0.00 0.00 0.00 73 1013.6
20260510090020 72 28 1.7 4.3 0.00 0.00 0.00 75 1013.0
20260510085820 72 28 1.7 7.0 0.00 0.00 0.00 76 1013.1
20260510085520 73 70 7.0 12.2 0.00 0.00 0.00 85 1013.0
20260510085419 73 15 2.6 3.5 0.00 0.00 0.00 86 1012.7
20260510085320 73 178 1.7 3.5 0.00 0.00 0.00 86 1012.6
20260510085220 73 42 1.7 3.5 0.00 0.00 0.00 86 1012.8
20260510085020 74 60 3.5 3.5 0.00 0.00 0.00 88 1012.6
20260510084920 74 234 1.7 3.5 0.00 0.00 0.00 89 1012.6
20260510084620 74 265 1.7 3.5 0.00 0.00 0.00 89 1012.4
20260510084219 74 46 0.0 2.6 0.00 0.00 0.00 89 1012.5
20260510083920 73 6 1.7 6.1 0.00 0.00 0.00 89 1012.1
20260510083620 73 72 5.2 5.2 0.00 0.00 0.00 90 1011.9
20260510083320 73 13 3.5 4.3 0.00 0.00 0.00 89 1012.0
20260510083220 73 43 3.5 4.3 0.00 0.00 0.00 89 1011.9
20260510083120 73 111 0.9 4.3 0.00 0.00 0.00 89 1011.7
20260510083021 73 34 0.0 3.5 0.00 0.00 0.00 89 1011.8
20260510082920 73 43 1.7 3.5 0.00 0.00 0.00 89 1011.7
20260510082820 73 59 0.9 2.6 0.00 0.00 0.00 89 1011.7
20260510082721 73 28 2.6 2.6 0.00 0.00 0.00 89 1011.6
20260510082620 73 63 0.9 3.5 0.00 0.00 0.00 89 1011.6
20260510082521 73 47 1.7 4.3 0.00 0.00 0.00 89 1011.5
20260510082420 74 85 3.5 5.2 0.00 0.00 0.00 89 1011.6
20260510082120 74 30 1.7 4.3 0.00 0.00 0.00 89 1011.8
20260510082020 74 133 3.5 3.5 0.00 0.00 0.00 88 1011.8
20260510081921 74 18 1.7 3.5 0.00 0.00 0.00 88 1011.8
20260510081620 74 224 0.9 2.6 0.00 0.00 0.00 88 1011.9
20260510081520 74 110 0.0 2.6 0.00 0.00 0.00 88 1012.1
20260510081420 74 140 0.9 1.7 0.00 0.00 0.00 88 1012.1
20260510080920 74 258 1.7 1.7 0.00 0.00 0.00 88 1012.4
20260510080520 74 279 0.9 1.7 0.00 0.00 0.00 88 1011.9
20260510080420 74 2 0.0 3.5 0.00 0.00 0.00 88 1011.7
20260510080019 74 322 0.0 2.6 0.00 0.00 0.00 88 1011.7
20260510075919 74 342 0.9 3.5 0.00 0.00 0.00 88 1011.5
20260510075819 74 60 1.7 3.5 0.00 0.00 0.00 88 1011.5
20260510075720 74 13 1.7 2.6 0.00 0.00 0.00 87 1011.5
20260510075219 74 44 0.0 1.7 0.00 0.00 0.00 87 1011.2
20260510075120 74 12 1.7 1.7 0.00 0.00 0.00 87 1011.2
20260510074720 74 108 0.0 1.7 0.00 0.00 0.00 86 1010.9
20260510074620 74 110 0.9 1.7 0.00 0.00 0.00 86 1010.7
20260510074319 74 356 0.9 0.9 0.00 0.00 0.00 86 1010.8
20260510074119 74 84 0.0 1.7 0.00 0.00 0.00 86 1010.8
20260510073820 74 21 1.7 1.7 0.00 0.00 0.00 86 1010.8
20260510073719 74 89 0.0 1.7 0.00 0.00 0.00 86 1010.8
20260510073620 74 100 0.9 1.7 0.00 0.00 0.00 86 1010.7
20260510073419 74 89 0.0 2.6 0.00 0.00 0.00 85 1010.7
20260510073320 74 110 1.7 1.7 0.00 0.00 0.00 85 1010.7
20260510072620 74 5 0.0 3.5 0.00 0.00 0.00 85 1010.3
20260510072520 74 70 1.7 3.5 0.00 0.00 0.00 85 1010.3
20260510072419 74 96 2.6 2.6 0.00 0.00 0.00 85 1010.1
20260510072320 74 113 0.0 2.6 0.00 0.00 0.00 85 1010.1
20260510071419 74 89 0.0 2.6 0.00 0.00 0.00 85 1010.1
20260510071319 74 138 1.7 2.6 0.00 0.00 0.00 85 1009.7
20260510070819 74 122 3.5 3.5 0.00 0.00 0.00 84 1009.7
20260510070720 74 93 0.0 3.5 0.00 0.00 0.00 84 1009.8
20260510070520 74 41 3.5 4.3 0.00 0.00 0.00 84 1009.8
20260510070419 74 87 0.9 3.5 0.00 0.00 0.00 84 1009.9
20260510070320 74 95 1.7 3.5 0.00 0.00 0.00 84 1009.8
20260510070220 74 135 1.7 3.5 0.00 0.00 0.00 84 1009.9
20260510070120 74 203 0.0 7.0 0.00 0.00 0.00 84 1010.1
20260510070019 74 150 1.7 7.0 0.00 0.00 0.00 84 1010.0
20260510065919 74 134 2.6 7.0 0.00 0.00 0.00 84 1009.9
20260510065821 74 60 2.6 7.0 0.00 0.00 0.00 84 1009.9
20260510065719 75 95 2.6 5.2 0.00 0.00 0.00 84 1010.1
20260510065420 75 137 1.7 6.1 0.00 0.00 0.00 83 1009.9
20260510065320 75 93 2.6 6.1 0.00 0.00 0.00 83 1010.1
20260510065220 75 118 0.9 4.3 0.00 0.00 0.00 83 1010.1
20260510065019 75 179 3.5 5.2 0.00 0.00 0.00 83 1010.2
20260510064919 75 55 1.7 4.3 0.00 0.00 0.00 83 1010.4
20260510064619 75 137 3.5 4.3 0.00 0.00 0.00 82 1010.9
20260510064419 75 314 0.9 3.5 0.00 0.00 0.00 82 1011.3
20260510064319 75 99 1.7 5.2 0.00 0.00 0.00 82 1011.2
20260510064219 75 31 0.9 5.2 0.00 0.00 0.00 82 1011.5
20260510064119 75 135 1.7 1.7 0.00 0.00 0.00 82 1011.7
20260510063920 75 35 0.0 2.6 0.00 0.00 0.00 82 1011.8
20260510063720 75 215 1.7 2.6 0.00 0.00 0.00 81 1011.6
20260510063620 75 235 0.9 1.7 0.00 0.00 0.00 81 1011.8
20260510063520 75 225 0.9 1.7 0.00 0.00 0.00 81 1011.8
20260510063420 75 102 1.7 2.6 0.00 0.00 0.00 81 1012.0
20260510063320 75 279 2.6 5.2 0.00 0.00 0.00 81 1012.0
20260510063219 75 108 0.9 5.2 0.00 0.00 0.00 81 1011.9
20260510063120 76 140 1.7 2.6 0.00 0.00 0.00 81 1012.1
20260510063019 76 236 2.6 4.3 0.00 0.00 0.00 81 1012.0
20260510062919 76 197 2.6 3.5 0.00 0.00 0.00 81 1012.1
20260510062820 76 235 3.5 3.5 0.00 0.00 0.00 81 1012.2
20260510062720 76 241 1.7 5.2 0.00 0.00 0.00 81 1012.2
20260510062419 76 277 1.7 5.2 0.00 0.00 0.00 81 1012.0
20260510062120 76 295 1.7 3.5 0.00 0.00 0.00 81 1012.2
20260510061420 76 173 0.0 1.7 0.00 0.00 0.00 80 1011.9
20260510061319 76 257 1.7 1.7 0.00 0.00 0.00 80 1011.9
20260510061020 76 297 0.0 1.7 0.00 0.00 0.00 80 1011.8
20260510060920 76 260 0.9 1.7 0.00 0.00 0.00 80 1012.0
20260510060720 76 253 0.0 2.6 0.00 0.00 0.00 79 1011.8
20260510060520 76 273 0.9 1.7 0.00 0.00 0.00 79 1011.7
20260510060419 76 37 0.9 2.6 0.00 0.00 0.00 79 1011.7
20260510060319 76 232 1.7 2.6 0.00 0.00 0.00 79 1011.6
20260510060219 76 290 0.9 1.7 0.00 0.00 0.00 79 1011.6
20260510055820 76 309 0.0 0.9 0.00 0.00 0.00 78 1010.8
20260510055620 76 306 0.9 1.7 0.00 0.00 0.00 78 1010.5
20260510055519 76 39 0.9 2.6 0.00 0.00 0.00 78 1010.7
20260510055219 76 23 0.0 1.7 0.00 0.00 0.00 79 1010.1
20260510055120 76 116 1.7 2.6 0.00 0.00 0.00 79 1009.9
20260510055020 76 107 0.0 2.6 0.00 0.00 0.00 79 1009.8
20260510054919 76 79 1.7 2.6 0.00 0.00 0.00 79 1009.9
20260510054820 76 83 1.7 2.6 0.00 0.00 0.00 79 1009.4
20260510054719 76 69 1.7 1.7 0.00 0.00 0.00 79 1009.7
20260510054619 76 66 0.0 2.6 0.00 0.00 0.00 79 1009.5
20260510054519 76 130 1.7 3.5 0.00 0.00 0.00 79 1009.5
20260510054419 76 94 1.7 2.6 0.00 0.00 0.00 79 1009.5
20260510054219 76 50 0.9 3.5 0.00 0.00 0.00 79 1009.3
20260510054120 76 142 1.7 3.5 0.00 0.00 0.00 78 1009.5
20260510053820 76 60 0.9 1.7 0.00 0.00 0.00 78 1009.3
20260510053720 76 48 0.0 4.3 0.00 0.00 0.00 78 1009.3
20260510053619 76 20 0.9 4.3 0.00 0.00 0.00 78 1009.3
20260510053419 76 56 0.0 4.3 0.00 0.00 0.00 78 1009.3
20260510053319 76 96 1.7 4.3 0.00 0.00 0.00 78 1009.3
20260510053220 76 105 2.6 2.6 0.00 0.00 0.00 78 1009.3
20260510053020 76 57 0.0 3.5 0.00 0.00 0.00 78 1009.3
20260510052719 76 72 0.0 3.5 0.00 0.00 0.00 77 1009.3
20260510052620 76 86 0.9 3.5 0.00 0.00 0.00 77 1009.0
20260510052519 76 85 1.7 3.5 0.00 0.00 0.00 77 1009.2
20260510052420 76 80 0.9 2.6 0.00 0.00 0.00 77 1009.0
20260510051820 76 93 1.7 3.5 0.00 0.00 0.00 76 1009.1
20260510051520 76 255 0.0 3.5 0.00 0.00 0.00 76 1009.1
20260510051420 76 34 0.9 3.5 0.00 0.00 0.00 76 1009.0
20260510051220 76 209 0.0 7.8 0.00 0.00 0.00 76 1008.9
20260510051119 76 50 1.7 3.5 0.00 0.00 0.00 75 1008.9
20260510051020 76 103 2.6 2.6 0.00 0.00 0.00 75 1008.8
20260510050920 76 66 0.0 4.3 0.00 0.00 0.00 75 1008.7
20260510050820 76 137 3.5 3.5 0.00 0.00 0.00 75 1008.9
20260510050519 76 73 0.9 5.2 0.00 0.00 0.00 74 1008.9
20260510050419 76 130 2.6 5.2 0.00 0.00 0.00 74 1009.1
20260510050119 76 316 0.0 3.5 0.00 0.00 0.00 73 1009.3
20260510050021 76 137 1.7 3.5 0.00 0.00 0.00 73 1009.1
20260510045920 76 98 2.6 3.5 0.00 0.00 0.00 73 1009.0
20260510045819 76 145 1.7 3.5 0.00 0.00 0.00 72 1009.0
20260510045719 76 58 0.9 3.5 0.00 0.00 0.00 72 1008.9
20260510045420 76 68 0.9 1.7 0.00 0.00 0.00 71 1008.9
20260510045219 77 322 0.0 3.5 0.00 0.00 0.00 70 1009.1
20260510045119 77 110 0.9 2.6 0.00 0.00 0.00 70 1008.7
20260510045019 77 48 0.0 2.6 0.00 0.00 0.00 70 1008.9
20260510044919 77 62 1.7 2.6 0.00 0.00 0.00 69 1009.0
20260510044819 77 124 0.0 2.6 0.00 0.00 0.00 69 1008.8
20260510044719 77 168 1.7 2.6 0.00 0.00 0.00 69 1008.8
20260510044619 77 102 0.0 2.6 0.00 0.00 0.00 69 1008.7
20260510044519 77 80 1.7 2.6 0.00 0.00 0.00 69 1008.7
20260510044419 77 49 1.7 2.6 0.00 0.00 0.00 69 1008.7
20260510044319 77 103 1.7 5.2 0.00 0.00 0.00 68 1008.6
20260510044219 77 127 2.6 5.2 0.00 0.00 0.00 68 1008.5
20260510043919 77 98 1.7 4.3 0.00 0.00 0.00 67 1008.5
20260510043820 77 193 0.9 2.6 0.00 0.00 0.00 67 1008.4
20260510043720 77 122 1.7 2.6 0.00 0.00 0.00 66 1008.1
20260510043620 77 140 1.7 5.2 0.00 0.00 0.00 66 1008.3
20260510043519 77 99 1.7 5.2 0.00 0.00 0.00 66 1008.4
20260510043420 77 78 1.7 2.6 0.00 0.00 0.00 66 1008.3
20260510043319 77 89 0.0 2.6 0.00 0.00 0.00 66 1008.2
20260510043120 77 79 1.7 2.6 0.00 0.00 0.00 66 1008.2
20260510043019 77 129 1.7 3.5 0.00 0.00 0.00 66 1008.3
20260510042619 77 154 0.0 1.7 0.00 0.00 0.00 66 1008.3
20260510042519 77 35 0.9 1.7 0.00 0.00 0.00 66 1008.3
20260510042219 77 113 0.0 2.6 0.00 0.00 0.00 66 1008.4
20260510042119 77 89 0.9 2.6 0.00 0.00 0.00 66 1008.5
20260510042019 77 87 0.9 1.7 0.00 0.00 0.00 65 1008.4
20260510041419 77 96 4.3 4.3 0.00 0.00 0.00 66 1008.5
20260510041120 77 91 0.0 2.6 0.00 0.00 0.00 66 1008.6
20260510040619 77 135 0.0 3.5 0.00 0.00 0.00 66 1008.7
20260510040520 77 103 1.7 3.5 0.00 0.00 0.00 66 1008.7
20260510040420 77 322 0.0 1.7 0.00 0.00 0.00 66 1008.6
20260510040320 77 64 1.7 1.7 0.00 0.00 0.00 65 1008.6
20260510040021 78 117 0.0 1.7 0.00 0.00 0.00 65 1008.7
20260510035420 78 113 0.0 3.5 0.00 0.00 0.00 65 1008.9
20260510035120 78 97 1.7 1.7 0.00 0.00 0.00 65 1008.8
20260510035020 78 58 0.0 1.7 0.00 0.00 0.00 65 1008.8
20260510034920 78 80 0.9 1.7 0.00 0.00 0.00 65 1009.0
20260510034820 78 47 0.0 1.7 0.00 0.00 0.00 65 1008.9
20260510034720 78 89 0.9 1.7 0.00 0.00 0.00 65 1008.8
20260510034420 78 171 1.7 2.6 0.00 0.00 0.00 64 1008.7
20260510034320 78 145 0.9 4.3 0.00 0.00 0.00 64 1008.7
20260510034221 78 147 1.7 3.5 0.00 0.00 0.00 64 1008.7
20260510034019 78 113 0.0 2.6 0.00 0.00 0.00 64 1008.9
20260510033920 78 135 1.7 2.6 0.00 0.00 0.00 64 1008.7
20260510033720 78 104 0.0 3.5 0.00 0.00 0.00 64 1008.8
20260510033619 78 96 1.7 3.5 0.00 0.00 0.00 64 1008.9
20260510033319 78 86 0.9 1.7 0.00 0.00 0.00 64 1008.9
20260510033120 78 44 0.0 2.6 0.00 0.00 0.00 64 1009.1
20260510033019 78 88 1.7 2.6 0.00 0.00 0.00 64 1009.0
20260510032419 77 81 0.9 3.5 0.00 0.00 0.00 65 1008.9
20260510032219 77 62 0.0 1.7 0.00 0.00 0.00 65 1008.8
20260510032120 77 71 1.7 1.7 0.00 0.00 0.00 65 1008.8
20260510032020 77 97 0.9 0.9 0.00 0.00 0.00 65 1008.8
20260510031919 77 39 0.9 1.7 0.00 0.00 0.00 65 1008.9
20260510031520 77 129 0.0 1.7 0.00 0.00 0.00 65 1008.8
20260510031421 77 72 1.7 1.7 0.00 0.00 0.00 66 1009.0
20260510031219 77 103 0.0 2.6 0.00 0.00 0.00 66 1008.9
20260510031119 77 88 0.9 1.7 0.00 0.00 0.00 66 1009.0
20260510030819 77 111 0.9 1.7 0.00 0.00 0.00 66 1008.9
20260510030620 77 173 0.0 1.7 0.00 0.00 0.00 66 1008.8
20260510030519 77 103 1.7 1.7 0.00 0.00 0.00 66 1009.1
20260510030419 77 85 1.7 1.7 0.00 0.00 0.00 66 1009.1
20260510030320 77 69 1.7 2.6 0.00 0.00 0.00 66 1008.9
20260510030220 77 74 1.7 2.6 0.00 0.00 0.00 66 1008.8
20260510030020 77 60 0.0 1.7 0.00 0.00 0.00 66 1008.8
20260510025920 77 94 0.9 2.6 0.00 0.00 0.00 66 1008.8
20260510025820 77 87 1.7 2.6 0.00 0.00 0.00 66 1008.8
20260510025720 77 140 0.9 1.7 0.00 0.00 0.00 66 1008.7
20260510025620 77 111 1.7 1.7 0.00 0.00 0.00 66 1008.7
20260510025520 77 65 0.9 1.7 0.00 0.00 0.00 66 1008.8
20260510025320 77 81 0.0 1.7 0.00 0.00 0.00 66 1008.6
20260510025220 77 145 1.7 1.7 0.00 0.00 0.00 66 1009.0
20260510025021 78 63 0.0 1.7 0.00 0.00 0.00 66 1008.7
20260510024921 78 77 1.7 1.7 0.00 0.00 0.00 66 1008.8
20260510024420 78 75 0.0 2.6 0.00 0.00 0.00 65 1008.9
20260510024320 78 79 1.7 2.6 0.00 0.00 0.00 65 1008.9
20260510024119 78 103 0.0 1.7 0.00 0.00 0.00 65 1008.9
20260510024020 78 73 1.7 3.5 0.00 0.00 0.00 65 1008.7
20260510023920 78 42 0.9 3.5 0.00 0.00 0.00 65 1008.6
20260510023620 78 124 0.0 1.7 0.00 0.00 0.00 64 1008.9
20260510023520 78 99 0.9 2.6 0.00 0.00 0.00 64 1008.7
20260510023220 78 335 0.0 2.6 0.00 0.00 0.00 64 1008.8
20260510022720 78 71 1.7 3.5 0.00 0.00 0.00 63 1008.6
20260510022319 78 116 1.7 3.5 0.00 0.00 0.00 63 1008.5
20260510022220 78 235 0.0 3.5 0.00 0.00 0.00 63 1008.6
20260510022120 78 85 1.7 3.5 0.00 0.00 0.00 63 1008.5
20260510021819 79 76 1.7 1.7 0.00 0.00 0.00 63 1008.5
20260510021720 79 66 1.7 1.7 0.00 0.00 0.00 63 1008.5
20260510021519 79 73 1.7 2.6 0.00 0.00 0.00 63 1008.5
20260510021420 79 21 0.0 2.6 0.00 0.00 0.00 62 1008.6
20260510021319 79 89 0.9 2.6 0.00 0.00 0.00 62 1008.4
20260510021219 79 119 0.9 2.6 0.00 0.00 0.00 62 1008.5
20260510021119 79 116 0.0 3.5 0.00 0.00 0.00 62 1008.3
20260510021019 79 84 2.6 3.5 0.00 0.00 0.00 62 1008.2
20260510020920 79 100 0.9 3.5 0.00 0.00 0.00 62 1008.4
20260510020820 79 89 3.5 3.5 0.00 0.00 0.00 62 1008.4
20260510020719 79 62 0.0 2.6 0.00 0.00 0.00 62 1008.4
20260510020620 79 43 1.7 2.6 0.00 0.00 0.00 61 1008.3
20260510020519 79 45 1.7 1.7 0.00 0.00 0.00 61 1008.5
20260510020419 79 100 1.7 1.7 0.00 0.00 0.00 61 1008.3
20260510020320 79 103 1.7 2.6 0.00 0.00 0.00 61 1008.4
20260510020220 79 168 0.9 2.6 0.00 0.00 0.00 61 1008.5
20260510020121 79 116 1.7 3.5 0.00 0.00 0.00 61 1008.3
20260510020020 79 109 3.5 3.5 0.00 0.00 0.00 61 1008.4
20260510015620 79 118 0.0 2.6 0.00 0.00 0.00 60 1008.2
20260510015520 79 94 1.7 3.5 0.00 0.00 0.00 60 1008.2
20260510015420 79 129 0.0 3.5 0.00 0.00 0.00 60 1008.3
20260510015321 80 50 0.9 3.5 0.00 0.00 0.00 60 1008.4
20260510014820 80 227 0.0 0.9 0.00 0.00 0.00 59 1008.3
20260510014720 80 144 0.9 3.5 0.00 0.00 0.00 59 1008.3
20260510014620 80 92 2.6 3.5 0.00 0.00 0.00 59 1008.1
20260510013620 80 15 0.0 2.6 0.00 0.00 0.00 58 1008.1
20260510013521 80 84 1.7 2.6 0.00 0.00 0.00 58 1008.1
20260510013220 80 60 0.0 1.7 0.00 0.00 0.00 58 1008.0
20260510013120 80 75 1.7 1.7 0.00 0.00 0.00 58 1008.0
20260510013021 80 147 0.0 2.6 0.00 0.00 0.00 58 1008.2
20260510012920 80 98 1.7 2.6 0.00 0.00 0.00 57 1007.9
20260510012821 80 76 1.7 2.6 0.00 0.00 0.00 57 1007.9
20260510012720 80 93 1.7 2.6 0.00 0.00 0.00 57 1007.8
20260510012620 80 60 0.9 2.6 0.00 0.00 0.00 57 1007.9
20260510012520 81 104 1.7 1.7 0.00 0.00 0.00 57 1008.0
20260510012420 81 8 1.7 1.7 0.00 0.00 0.00 57 1007.9
20260510012021 81 154 0.0 2.6 0.00 0.00 0.00 56 1007.6
20260510011920 81 58 2.6 2.6 0.00 0.00 0.00 56 1007.9
20260510011821 81 69 0.0 2.6 0.00 0.00 0.00 56 1007.6
20260510011621 81 85 1.7 1.7 0.00 0.00 0.00 56 1007.9
20260510010820 82 54 0.0 2.6 0.00 0.00 0.00 54 1007.5
20260510010721 82 331 0.9 5.2 0.00 0.00 0.00 54 1007.8
20260510010620 82 35 1.7 5.2 0.00 0.00 0.00 54 1007.4
20260510010520 82 47 1.7 3.5 0.00 0.00 0.00 53 1007.5
20260510010421 82 120 1.7 3.5 0.00 0.00 0.00 53 1007.5
20260510010322 82 54 0.9 3.5 0.00 0.00 0.00 53 1007.5
20260510010120 82 86 1.7 3.5 0.00 0.00 0.00 53 1007.3
20260510010020 82 226 0.0 1.7 0.00 0.00 0.00 52 1007.7
20260510005920 82 101 0.9 1.7 0.00 0.00 0.00 52 1007.3
20260510005620 82 86 1.7 3.5 0.00 0.00 0.00 52 1007.5
20260510005419 82 120 0.0 3.5 0.00 0.00 0.00 51 1007.5
20260510005320 82 110 0.9 4.3 0.00 0.00 0.00 51 1007.7
20260510005120 83 138 2.6 2.6 0.00 0.00 0.00 51 1007.5
20260510005020 83 96 0.0 1.7 0.00 0.00 0.00 50 1007.5
20260510004920 83 222 0.9 3.5 0.00 0.00 0.00 50 1007.3
20260510004820 83 95 2.6 2.6 0.00 0.00 0.00 50 1007.3
20260510004720 83 152 0.9 3.5 0.00 0.00 0.00 50 1007.5
20260510004420 83 83 2.6 3.5 0.00 0.00 0.00 49 1007.4
20260510004320 83 347 1.7 3.5 0.00 0.00 0.00 49 1007.4
20260510004121 83 129 2.6 3.5 0.00 0.00 0.00 49 1007.5
20260510004021 83 229 0.9 1.7 0.00 0.00 0.00 49 1007.3
20260510003920 83 43 0.9 1.7 0.00 0.00 0.00 49 1007.4
20260510003820 83 94 1.7 1.7 0.00 0.00 0.00 49 1007.4
20260510003520 83 267 0.0 1.7 0.00 0.00 0.00 49 1007.3
20260510003421 83 62 1.7 1.7 0.00 0.00 0.00 49 1007.3
20260510003321 83 246 0.9 3.5 0.00 0.00 0.00 49 1007.4
20260510003020 83 288 0.0 3.5 0.00 0.00 0.00 49 1007.4
20260510002920 83 95 1.7 4.3 0.00 0.00 0.00 49 1007.3
20260510002621 83 107 1.7 3.5 0.00 0.00 0.00 50 1007.1
20260510002521 83 107 1.7 2.6 0.00 0.00 0.00 50 1007.2
20260510002320 84 71 0.0 1.7 0.00 0.00 0.00 50 1007.4
20260510002220 84 110 1.7 1.7 0.00 0.00 0.00 50 1007.2
20260510002120 84 142 0.9 3.5 0.00 0.00 0.00 50 1007.3
20260510002020 84 103 1.7 3.5 0.00 0.00 0.00 50 1007.2
20260510001920 84 65 1.7 2.6 0.00 0.00 0.00 50 1007.3
20260510001420 84 85 0.0 3.5 0.00 0.00 0.00 49 1007.4
20260510001320 84 14 1.7 3.5 0.00 0.00 0.00 50 1007.3
20260510000920 84 153 1.7 4.3 0.00 0.00 0.00 49 1007.3
20260510000821 84 329 0.0 3.5 0.00 0.00 0.00 49 1007.3
20260510000720 84 117 0.9 3.5 0.00 0.00 0.00 49 1007.4
20260510000620 84 60 0.9 3.5 0.00 0.00 0.00 49 1007.3
20260510000220 84 145 0.0 3.5 0.00 0.00 0.00 49 1007.5
20260510000120 84 98 2.6 3.5 0.00 0.00 0.00 49 1007.4
20260510000020 84 163 0.0 3.5 0.00 0.00 0.00 48 1007.4
20260509235920 85 96 3.5 3.5 0.00 0.00 0.00 48 1007.4
20260509235821 85 63 1.7 2.6 0.00 0.00 0.00 48 1007.2
20260509235720 85 72 2.6 3.5 0.00 0.00 0.00 48 1007.4
20260509235619 85 103 3.5 3.5 0.00 0.00 0.00 48 1007.5
20260509235519 85 149 1.7 3.5 0.00 0.00 0.00 48 1007.5
20260509235419 85 340 0.9 3.5 0.00 0.00 0.00 48 1007.5
20260509235319 85 132 0.9 2.6 0.00 0.00 0.00 48 1007.4
20260509235220 85 89 0.9 1.7 0.00 0.00 0.00 48 1007.4
20260509235120 85 23 0.0 3.5 0.00 0.00 0.00 48 1007.5
20260509234719 85 89 1.7 5.2 0.00 0.00 0.00 48 1007.6
20260509234620 85 82 1.7 4.3 0.00 0.00 0.00 49 1007.6
20260509234520 85 133 0.0 4.3 0.00 0.00 0.00 49 1007.3
20260509234420 85 340 0.9 2.6 0.00 0.00 0.00 49 1007.6
20260509234320 85 28 0.9 2.6 0.00 0.00 0.00 49 1007.4
20260509234220 85 88 1.7 5.2 0.00 0.00 0.00 48 1007.2
20260509234020 85 124 0.0 2.6 0.00 0.00 0.00 48 1007.4
20260509233920 85 95 1.7 2.6 0.00 0.00 0.00 48 1007.4
20260509233820 86 104 2.6 2.6 0.00 0.00 0.00 48 1007.4
20260509233720 86 101 1.7 2.6 0.00 0.00 0.00 48 1007.1
20260509233620 86 105 2.6 2.6 0.00 0.00 0.00 48 1007.6
20260509233521 86 29 0.9 1.7 0.00 0.00 0.00 48 1007.4
20260509233421 86 338 1.7 3.5 0.00 0.00 0.00 48 1007.4
20260509233320 86 24 3.5 3.5 0.00 0.00 0.00 49 1007.4
20260509233220 86 328 1.7 3.5 0.00 0.00 0.00 50 1007.4
20260509233120 86 58 0.0 2.6 0.00 0.00 0.00 51 1007.3
20260509232920 86 150 1.7 2.6 0.00 0.00 0.00 51 1007.2
20260509232820 86 65 0.9 2.6 0.00 0.00 0.00 52 1007.4
20260509232520 86 184 0.9 1.7 0.00 0.00 0.00 51 1007.2
20260509232420 86 48 1.7 1.7 0.00 0.00 0.00 52 1007.2
20260509232320 86 307 0.0 2.6 0.00 0.00 0.00 52 1007.4
20260509232220 86 239 0.9 2.6 0.00 0.00 0.00 52 1007.2
20260509231920 86 265 0.9 2.6 0.00 0.00 0.00 52 1007.3
20260509231820 86 91 2.6 2.6 0.00 0.00 0.00 52 1007.1
20260509231720 86 37 1.7 2.6 0.00 0.00 0.00 52 1007.4
20260509231520 86 290 0.0 3.5 0.00 0.00 0.00 52 1007.4
20260509231420 86 120 1.7 3.5 0.00 0.00 0.00 52 1007.3
20260509231320 86 89 1.7 2.6 0.00 0.00 0.00 52 1007.3
20260509231220 86 302 0.0 4.3 0.00 0.00 0.00 51 1007.2
20260509231120 86 86 2.6 4.3 0.00 0.00 0.00 52 1007.2
20260509231020 86 13 2.6 3.5 0.00 0.00 0.00 52 1007.3
20260509230920 86 217 0.0 4.3 0.00 0.00 0.00 52 1007.4
20260509230520 86 183 0.0 2.6 0.00 0.00 0.00 53 1007.4
20260509230420 86 178 1.7 2.6 0.00 0.00 0.00 53 1007.2
20260509230320 86 35 1.7 2.6 0.00 0.00 0.00 52 1007.3
20260509230220 86 18 2.6 2.6 0.00 0.00 0.00 52 1007.4
20260509230120 86 182 1.7 1.7 0.00 0.00 0.00 52 1007.4
20260509230020 87 39 0.0 3.5 0.00 0.00 0.00 51 1007.3
20260509225920 87 92 3.5 3.5 0.00 0.00 0.00 52 1007.4
20260509225822 87 34 2.6 3.5 0.00 0.00 0.00 52 1007.4
20260509225720 87 67 0.9 3.5 0.00 0.00 0.00 52 1007.2
20260509225620 87 57 0.0 2.6 0.00 0.00 0.00 52 1007.4
20260509225519 87 144 0.9 4.3 0.00 0.00 0.00 51 1007.3
20260509225419 87 92 2.6 4.3 0.00 0.00 0.00 52 1007.3
20260509225119 87 140 0.0 1.7 0.00 0.00 0.00 53 1007.3
20260509224720 87 141 1.7 2.6 0.00 0.00 0.00 53 1007.2
20260509224619 87 140 0.0 2.6 0.00 0.00 0.00 53 1007.2
20260509224520 87 234 0.9 2.6 0.00 0.00 0.00 53 1007.1
20260509224319 86 172 0.9 1.7 0.00 0.00 0.00 53 1007.3
20260509224220 87 305 1.7 1.7 0.00 0.00 0.00 52 1007.2
20260509224120 87 119 0.9 5.2 0.00 0.00 0.00 52 1007.3
20260509224021 87 109 3.5 5.2 0.00 0.00 0.00 52 1007.2
20260509223620 87 98 1.7 3.5 0.00 0.00 0.00 52 1007.2
20260509223520 87 123 0.0 2.6 0.00 0.00 0.00 52 1007.2
20260509223021 87 298 0.9 2.6 0.00 0.00 0.00 53 1007.4
20260509222721 87 190 0.0 2.6 0.00 0.00 0.00 53 1006.9
20260509222621 87 351 0.9 2.6 0.00 0.00 0.00 53 1007.3
20260509222521 87 314 0.9 1.7 0.00 0.00 0.00 53 1007.0
20260509222420 86 49 0.9 2.6 0.00 0.00 0.00 53 1007.2
20260509222320 87 331 1.7 5.2 0.00 0.00 0.00 53 1007.4
20260509222221 87 165 0.9 5.2 0.00 0.00 0.00 54 1007.1
20260509222121 86 332 1.7 2.6 0.00 0.00 0.00 54 1007.3
20260509222020 86 255 0.0 3.5 0.00 0.00 0.00 54 1007.3
20260509221920 87 21 2.6 4.3 0.00 0.00 0.00 53 1006.9
20260509221621 87 118 0.9 5.2 0.00 0.00 0.00 53 1007.1
20260509221421 87 107 2.6 4.3 0.00 0.00 0.00 53 1007.3
20260509221321 87 171 1.7 2.6 0.00 0.00 0.00 53 1007.1
20260509221120 87 234 0.0 1.7 0.00 0.00 0.00 53 1007.2
20260509221021 87 112 0.9 4.3 0.00 0.00 0.00 53 1007.2
20260509220520 86 93 0.0 3.5 0.00 0.00 0.00 54 1007.2
20260509220422 87 109 1.7 3.5 0.00 0.00 0.00 54 1007.2
20260509220119 87 211 0.0 4.3 0.00 0.00 0.00 53 1007.2
20260509220019 87 92 1.7 5.2 0.00 0.00 0.00 53 1007.2
20260509215919 87 147 3.5 4.3 0.00 0.00 0.00 53 1007.2
20260509215819 87 268 0.9 4.3 0.00 0.00 0.00 53 1007.2
20260509215719 87 107 3.5 3.5 0.00 0.00 0.00 53 1007.0
20260509215620 87 86 1.7 3.5 0.00 0.00 0.00 52 1007.1
20260509215519 87 135 0.9 2.6 0.00 0.00 0.00 53 1007.0
20260509215419 87 292 0.0 3.5 0.00 0.00 0.00 53 1007.0
20260509215320 87 96 2.6 2.6 0.00 0.00 0.00 54 1007.4
20260509215119 87 128 1.7 3.5 0.00 0.00 0.00 54 1007.1
20260509215019 87 294 0.9 4.3 0.00 0.00 0.00 54 1007.0
20260509214920 87 318 0.0 4.3 0.00 0.00 0.00 54 1007.2
20260509214819 87 80 0.9 1.7 0.00 0.00 0.00 54 1007.0
20260509214720 87 53 0.9 4.3 0.00 0.00 0.00 53 1007.1
20260509214619 87 312 0.0 4.3 0.00 0.00 0.00 54 1007.0
20260509214319 87 74 3.5 4.3 0.00 0.00 0.00 53 1007.3
20260509214019 87 174 0.9 2.6 0.00 0.00 0.00 54 1007.1
20260509213719 87 342 0.0 3.5 0.00 0.00 0.00 53 1007.3
20260509213220 87 257 0.9 2.6 0.00 0.00 0.00 54 1007.4
20260509213120 87 313 0.0 2.6 0.00 0.00 0.00 54 1007.5
20260509213020 87 79 1.7 3.5 0.00 0.00 0.00 54 1007.5
20260509212920 87 124 1.7 3.5 0.00 0.00 0.00 55 1007.4
20260509212820 86 80 2.6 4.3 0.00 0.00 0.00 54 1007.4
20260509212720 86 195 0.0 4.3 0.00 0.00 0.00 54 1007.4
20260509212319 87 53 0.0 2.6 0.00 0.00 0.00 54 1007.4
20260509212219 87 326 0.9 3.5 0.00 0.00 0.00 54 1007.4
20260509211820 87 133 2.6 4.3 0.00 0.00 0.00 54 1007.6
20260509211719 86 119 1.7 4.3 0.00 0.00 0.00 55 1007.6
20260509211619 87 236 0.0 2.6 0.00 0.00 0.00 54 1007.4
20260509211320 87 281 0.9 2.6 0.00 0.00 0.00 53 1007.5
20260509211220 87 351 2.6 3.5 0.00 0.00 0.00 53 1007.6
20260509211020 87 325 0.0 2.6 0.00 0.00 0.00 53 1007.4
20260509210919 87 210 1.7 2.6 0.00 0.00 0.00 53 1007.7
20260509210819 87 221 0.9 3.5 0.00 0.00 0.00 54 1007.7
20260509210719 87 202 3.5 3.5 0.00 0.00 0.00 53 1007.6
20260509210619 87 71 1.7 2.6 0.00 0.00 0.00 53 1007.4
20260509210519 88 10 0.0 3.5 0.00 0.00 0.00 53 1007.4
20260509210419 88 97 0.9 1.7 0.00 0.00 0.00 53 1007.5
20260509210219 87 214 0.0 1.7 0.00 0.00 0.00 53 1007.7
20260509210119 88 330 0.9 7.0 0.00 0.00 0.00 53 1007.6
20260509210020 88 112 1.7 7.0 0.00 0.00 0.00 53 1007.7
20260509205719 87 329 0.9 2.6 0.00 0.00 0.00 53 1007.7
20260509205319 88 105 5.2 5.2 0.00 0.00 0.00 51 1007.6
20260509205219 88 241 1.7 4.3 0.00 0.00 0.00 50 1007.7
20260509204919 88 330 0.9 2.6 0.00 0.00 0.00 51 1007.7
20260509204819 88 324 1.7 3.5 0.00 0.00 0.00 51 1007.8
20260509204720 88 338 1.7 3.5 0.00 0.00 0.00 52 1007.9
20260509204419 88 271 0.0 3.5 0.00 0.00 0.00 53 1008.0
20260509204120 87 209 0.0 2.6 0.00 0.00 0.00 53 1008.0
20260509204020 87 346 2.6 2.6 0.00 0.00 0.00 52 1008.0
20260509203919 87 182 1.7 2.6 0.00 0.00 0.00 53 1007.9
20260509203819 87 221 0.9 2.6 0.00 0.00 0.00 52 1008.0
20260509203720 87 113 0.9 1.7 0.00 0.00 0.00 52 1007.9
20260509203321 87 220 2.6 4.3 0.00 0.00 0.00 52 1008.1
20260509203219 88 94 2.6 4.3 0.00 0.00 0.00 52 1008.1
20260509203119 88 204 0.9 2.6 0.00 0.00 0.00 51 1007.9
20260509203020 88 119 1.7 2.6 0.00 0.00 0.00 52 1008.1
20260509202920 88 244 0.9 5.2 0.00 0.00 0.00 51 1008.0
20260509202620 89 223 0.9 3.5 0.00 0.00 0.00 52 1007.9
20260509202520 89 181 1.7 4.3 0.00 0.00 0.00 51 1008.0
20260509202419 89 312 1.7 4.3 0.00 0.00 0.00 50 1008.1
20260509202320 89 148 3.5 3.5 0.00 0.00 0.00 49 1008.0
20260509201919 89 247 0.0 3.5 0.00 0.00 0.00 46 1008.0
20260509201820 89 244 2.6 4.3 0.00 0.00 0.00 45 1008.2
20260509201719 89 284 2.6 4.3 0.00 0.00 0.00 45 1007.9
20260509201620 89 83 2.6 2.6 0.00 0.00 0.00 45 1008.0
20260509201520 89 184 1.7 1.7 0.00 0.00 0.00 44 1008.1
20260509201220 89 296 0.0 1.7 0.00 0.00 0.00 46 1008.1
20260509201119 89 235 1.7 2.6 0.00 0.00 0.00 46 1008.1
20260509200920 88 103 1.7 2.6 0.00 0.00 0.00 45 1008.0
20260509200419 88 256 2.6 4.3 0.00 0.00 0.00 46 1008.2
20260509200323 88 298 1.7 3.5 0.00 0.00 0.00 46 1008.2
20260509195920 89 248 1.7 5.2 0.00 0.00 0.00 46 1008.3
20260509195820 89 253 2.6 3.5 0.00 0.00 0.00 46 1008.3
20260509195420 88 310 0.0 5.2 0.00 0.00 0.00 46 1008.5
20260509195319 88 265 5.2 5.2 0.00 0.00 0.00 46 1008.2
20260509195219 88 254 1.7 3.5 0.00 0.00 0.00 47 1008.4
20260509195019 88 318 1.7 1.7 0.00 0.00 0.00 48 1008.5
20260509194719 87 64 1.7 2.6 0.00 0.00 0.00 49 1008.4
20260509194620 87 332 1.7 2.6 0.00 0.00 0.00 49 1008.4
20260509194519 87 284 1.7 1.7 0.00 0.00 0.00 48 1008.3
20260509194420 87 299 0.0 2.6 0.00 0.00 0.00 48 1008.5
20260509194120 87 4 1.7 4.3 0.00 0.00 0.00 49 1008.2
20260509193719 87 312 0.9 2.6 0.00 0.00 0.00 50 1008.4
20260509193220 88 359 0.9 3.5 0.00 0.00 0.00 50 1008.7
20260509193120 88 99 1.7 3.5 0.00 0.00 0.00 50 1008.6
20260509193019 89 213 1.7 3.5 0.00 0.00 0.00 49 1008.5
20260509192720 89 204 0.0 2.6 0.00 0.00 0.00 49 1008.4
20260509192619 89 224 1.7 2.6 0.00 0.00 0.00 50 1008.6
20260509192319 88 228 0.0 1.7 0.00 0.00 0.00 53 1008.7
20260509192219 88 277 0.9 3.5 0.00 0.00 0.00 52 1008.5
20260509192120 88 264 1.7 3.5 0.00 0.00 0.00 53 1008.5
20260509192020 88 272 1.7 1.7 0.00 0.00 0.00 53 1008.9
20260509191719 87 218 0.0 1.7 0.00 0.00 0.00 51 1008.7
20260509191620 87 197 0.9 3.5 0.00 0.00 0.00 50 1008.7
20260509191520 87 280 1.7 3.5 0.00 0.00 0.00 51 1008.8
20260509191419 87 266 2.6 4.3 0.00 0.00 0.00 51 1008.8
20260509191320 87 284 2.6 4.3 0.00 0.00 0.00 51 1008.8
20260509191220 87 288 0.9 3.5 0.00 0.00 0.00 51 1008.8
20260509191119 87 254 2.6 3.5 0.00 0.00 0.00 51 1008.9
20260509191020 87 142 1.7 1.7 0.00 0.00 0.00 51 1008.8
20260509190920 87 231 0.9 1.7 0.00 0.00 0.00 51 1008.6
20260509190620 87 139 1.7 3.5 0.00 0.00 0.00 52 1008.8
20260509190320 86 312 1.7 2.6 0.00 0.00 0.00 53 1008.8
20260509190220 86 219 1.7 1.7 0.00 0.00 0.00 53 1008.8
20260509185920 86 126 1.7 2.6 0.00 0.00 0.00 56 1008.9
20260509185820 85 211 0.0 1.7 0.00 0.00 0.00 56 1009.1
20260509185520 85 220 0.9 5.2 0.00 0.00 0.00 55 1009.0
20260509185420 85 277 3.5 5.2 0.00 0.00 0.00 54 1009.1
20260509185321 85 268 4.3 4.3 0.00 0.00 0.00 55 1008.9
20260509185220 85 299 1.7 2.6 0.00 0.00 0.00 55 1009.0
20260509185021 85 136 1.7 2.6 0.00 0.00 0.00 59 1009.1
20260509184920 85 205 0.0 4.3 0.00 0.00 0.00 59 1009.1
20260509184820 85 293 0.9 4.3 0.00 0.00 0.00 58 1008.8
20260509184720 85 104 1.7 3.5 0.00 0.00 0.00 58 1009.1
20260509184521 85 183 0.0 1.7 0.00 0.00 0.00 58 1009.2
20260509184420 84 295 1.7 2.6 0.00 0.00 0.00 57 1009.1
20260509184220 85 258 1.7 4.3 0.00 0.00 0.00 55 1008.9
20260509184120 85 267 3.5 4.3 0.00 0.00 0.00 55 1009.0
20260509184020 85 281 2.6 4.3 0.00 0.00 0.00 56 1009.0
20260509183920 85 269 1.7 2.6 0.00 0.00 0.00 58 1009.0
20260509183619 84 120 2.6 3.5 0.00 0.00 0.00 59 1009.5
20260509183519 84 255 0.0 3.5 0.00 0.00 0.00 60 1009.2
20260509183420 85 292 2.6 5.2 0.00 0.00 0.00 59 1009.1
20260509183320 85 282 3.5 4.3 0.00 0.00 0.00 58 1009.1
20260509183220 85 266 2.6 4.3 0.00 0.00 0.00 58 1009.3
20260509183020 85 284 1.7 1.7 0.00 0.00 0.00 60 1009.1
20260509182719 84 252 0.0 3.5 0.00 0.00 0.00 60 1009.5
20260509182519 84 283 0.9 3.5 0.00 0.00 0.00 60 1009.1
20260509182420 84 263 1.7 3.5 0.00 0.00 0.00 60 1009.4
20260509182120 85 286 7.0 7.0 0.00 0.00 0.00 59 1009.3
20260509182020 85 276 2.6 3.5 0.00 0.00 0.00 60 1009.3
20260509181520 84 303 1.7 2.6 0.00 0.00 0.00 62 1009.6
20260509181420 83 310 0.0 2.6 0.00 0.00 0.00 62 1009.5
20260509181020 82 211 0.0 3.5 0.00 0.00 0.00 64 1009.6
20260509180919 82 240 1.7 4.3 0.00 0.00 0.00 63 1009.5
20260509180820 82 304 1.7 4.3 0.00 0.00 0.00 62 1009.5
20260509180720 83 282 3.5 4.3 0.00 0.00 0.00 62 1009.6
20260509180620 83 277 3.5 4.3 0.00 0.00 0.00 63 1009.6
20260509180519 83 286 0.9 2.6 0.00 0.00 0.00 63 1009.7
20260509180120 84 268 1.7 4.3 0.00 0.00 0.00 61 1009.6
20260509175821 84 290 1.7 2.6 0.00 0.00 0.00 62 1009.7
20260509175520 83 272 0.0 1.7 0.00 0.00 0.00 62 1009.6
20260509175420 83 293 0.9 1.7 0.00 0.00 0.00 63 1009.7
20260509175320 83 287 0.0 1.7 0.00 0.00 0.00 63 1009.7
20260509175121 83 206 0.9 3.5 0.00 0.00 0.00 62 1009.7
20260509174920 83 237 2.6 4.3 0.00 0.00 0.00 61 1009.8
20260509174820 83 272 1.7 4.3 0.00 0.00 0.00 62 1009.8
20260509174720 83 310 0.0 2.6 0.00 0.00 0.00 63 1010.0
20260509173920 83 285 1.7 3.5 0.00 0.00 0.00 62 1009.8
20260509173821 83 286 1.7 3.5 0.00 0.00 0.00 62 1009.9
20260509173720 83 283 1.7 1.7 0.00 0.00 0.00 64 1009.8
20260509173120 82 330 0.9 2.6 0.00 0.00 0.00 64 1010.0
20260509172920 82 260 0.9 1.7 0.00 0.00 0.00 65 1010.0
20260509172520 82 304 0.0 2.6 0.00 0.00 0.00 65 1010.1
20260509172421 81 321 1.7 2.6 0.00 0.00 0.00 65 1010.1
20260509172220 81 267 0.9 2.6 0.00 0.00 0.00 66 1010.0
20260509171920 80 130 0.0 2.6 0.00 0.00 0.00 69 1010.2
20260509171820 80 124 1.7 4.3 0.00 0.00 0.00 70 1010.3
20260509171720 79 350 0.0 4.3 0.00 0.00 0.00 70 1010.7
20260509171620 79 110 1.7 4.3 0.00 0.00 0.00 69 1010.5
20260509171520 79 276 2.6 4.3 0.00 0.00 0.00 68 1010.5
20260509171420 79 291 1.7 4.3 0.00 0.00 0.00 69 1010.5
20260509171319 79 274 3.5 5.2 0.00 0.00 0.00 70 1010.4
20260509171220 79 276 1.7 6.1 0.00 0.00 0.00 70 1010.5
20260509171119 79 243 1.7 6.1 0.00 0.00 0.00 69 1010.5
20260509171020 79 283 3.5 5.2 0.00 0.00 0.00 69 1010.5
20260509170720 79 222 0.9 4.3 0.00 0.00 0.00 70 1010.4
20260509170621 79 287 3.5 4.3 0.00 0.00 0.00 70 1010.6
20260509170520 79 277 3.5 5.2 0.00 0.00 0.00 69 1010.5
20260509170420 79 284 3.5 5.2 0.00 0.00 0.00 70 1010.4
20260509165720 79 280 3.5 3.5 0.00 0.00 0.00 70 1010.2
20260509165620 79 279 3.5 3.5 0.00 0.00 0.00 70 1010.4
20260509165520 79 263 2.6 2.6 0.00 0.00 0.00 71 1010.5
20260509165420 79 192 1.7 3.5 0.00 0.00 0.00 70 1010.6
20260509165320 79 292 0.9 3.5 0.00 0.00 0.00 70 1010.5
20260509165220 78 269 1.7 2.6 0.00 0.00 0.00 70 1010.3
20260509165120 78 223 1.7 3.5 0.00 0.00 0.00 70 1010.6
20260509165020 78 286 3.5 3.5 0.00 0.00 0.00 70 1010.6
20260509164820 79 287 3.5 4.3 0.00 0.00 0.00 70 1010.5
20260509164720 79 227 0.0 3.5 0.00 0.00 0.00 70 1010.3
20260509164620 79 272 3.5 5.2 0.00 0.00 0.00 70 1010.6
20260509164420 79 269 3.5 3.5 0.00 0.00 0.00 71 1010.4
20260509164320 78 33 0.9 3.5 0.00 0.00 0.00 71 1010.5
20260509164220 78 248 1.7 3.5 0.00 0.00 0.00 72 1010.5
20260509164120 78 251 0.0 2.6 0.00 0.00 0.00 73 1010.2
20260509163820 77 287 3.5 6.1 0.00 0.00 0.00 73 1010.5
20260509163721 77 277 4.3 7.0 0.00 0.00 0.00 73 1010.4
20260509163321 78 279 2.6 5.2 0.00 0.00 0.00 73 1010.3
20260509163220 77 281 3.5 4.3 0.00 0.00 0.00 73 1010.4
20260509163120 77 251 2.6 4.3 0.00 0.00 0.00 74 1010.4
20260509162820 77 276 4.3 4.3 0.00 0.00 0.00 74 1010.4
20260509162621 77 277 1.7 5.2 0.00 0.00 0.00 73 1010.6
20260509162520 77 253 3.5 5.2 0.00 0.00 0.00 72 1010.6
20260509162420 78 273 4.3 5.2 0.00 0.00 0.00 72 1010.3
20260509162320 78 276 3.5 5.2 0.00 0.00 0.00 72 1010.5
20260509162221 78 276 2.6 5.2 0.00 0.00 0.00 71 1010.2
20260509162120 78 267 1.7 3.5 0.00 0.00 0.00 72 1010.4
20260509162021 78 245 1.7 2.6 0.00 0.00 0.00 73 1010.4
20260509161920 77 205 1.7 6.1 0.00 0.00 0.00 73 1010.2
20260509161820 78 315 1.7 7.0 0.00 0.00 0.00 72 1010.3
20260509161521 78 278 1.7 3.5 0.00 0.00 0.00 72 1010.2
20260509161420 78 36 1.7 1.7 0.00 0.00 0.00 72 1010.5
20260509160921 77 303 1.7 4.3 0.00 0.00 0.00 73 1010.4
20260509160820 77 287 3.5 4.3 0.00 0.00 0.00 73 1010.3
20260509160720 78 252 0.9 4.3 0.00 0.00 0.00 72 1010.3
20260509160621 78 206 1.7 4.3 0.00 0.00 0.00 72 1010.3
20260509160521 78 288 0.9 3.5 0.00 0.00 0.00 72 1010.3
20260509160420 78 287 3.5 3.5 0.00 0.00 0.00 72 1010.3
20260509155920 77 1 1.7 1.7 0.00 0.00 0.00 73 1010.4
20260509155720 77 333 0.0 2.6 0.00 0.00 0.00 74 1010.5
20260509155620 76 111 1.7 3.5 0.00 0.00 0.00 75 1010.4
20260509155320 75 97 2.6 3.5 0.00 0.00 0.00 78 1010.5
20260509155220 75 30 1.7 5.2 0.00 0.00 0.00 77 1010.8
20260509155120 75 264 5.2 5.2 0.00 0.00 0.00 77 1010.5
20260509154920 75 222 0.0 3.5 0.00 0.00 0.00 77 1010.5
20260509154720 75 287 1.7 6.1 0.00 0.00 0.00 78 1010.5
20260509154520 75 273 3.5 4.3 0.00 0.00 0.00 77 1010.5
20260509154420 75 281 3.5 5.2 0.00 0.00 0.00 77 1010.5
20260509154321 75 271 2.6 5.2 0.00 0.00 0.00 77 1010.7
20260509154220 75 267 3.5 4.3 0.00 0.00 0.00 77 1010.6
20260509154020 75 265 1.7 6.1 0.00 0.00 0.00 77 1010.7
20260509153720 75 284 3.5 4.3 0.00 0.00 0.00 76 1010.6
20260509153620 75 269 1.7 5.2 0.00 0.00 0.00 76 1010.6
20260509153520 75 271 5.2 5.2 0.00 0.00 0.00 77 1010.6
20260509153220 76 272 1.7 3.5 0.00 0.00 0.00 76 1010.5
20260509153120 76 285 3.5 5.2 0.00 0.00 0.00 75 1010.4
20260509153020 76 264 2.6 4.3 0.00 0.00 0.00 76 1010.5
20260509152920 76 219 0.9 2.6 0.00 0.00 0.00 76 1010.5
20260509152820 76 47 0.9 1.7 0.00 0.00 0.00 76 1010.5
20260509152720 76 306 0.9 2.6 0.00 0.00 0.00 76 1010.4